DW6485 Weather Reports


Display with metric or nautical units.
time (UTC)temp
F
wind
direction
speed
MPH
gust
MPH
rain 1hr
in
rain 24hr
in
rain mn
in
humidity
%
barometer
mb
20260505173218 59 193 14.0 22.0 0.00 0.00 0.00 52 1013.3
20260505172715 59 218 11.0 16.0 0.00 0.00 0.00 52 1013.3
20260505172212 58 236 15.0 18.0 0.00 0.00 0.00 54 1013.3
20260505171712 59 190 16.0 25.0 0.00 0.00 0.00 54 1013.2
20260505171209 58 228 15.0 22.0 0.00 0.00 0.00 53 1013.4
20260505170706 58 204 14.0 21.0 0.00 0.00 0.00 55 1013.2
20260505170203 58 198 13.0 26.0 0.00 0.00 0.00 55 1013.5
20260505165703 57 197 13.0 21.0 0.00 0.00 0.00 56 1013.4
20260505165159 57 192 20.0 23.0 0.00 0.00 0.00 55 1013.2
20260505164655 56 181 15.0 22.0 0.00 0.00 0.00 57 1013.3
20260505164153 56 191 17.0 23.0 0.00 0.00 0.00 56 1012.9
20260505163651 56 199 18.0 23.0 0.00 0.00 0.00 56 1013.1
20260505163148 56 193 19.0 22.0 0.00 0.00 0.00 57 1013.3
20260505162646 55 216 15.0 19.0 0.00 0.00 0.00 59 1013.1
20260505162143 54 221 10.0 21.0 0.00 0.00 0.00 61 1013.1
20260505161640 54 184 18.0 21.0 0.00 0.00 0.00 60 1013.3
20260505161137 56 254 12.0 19.0 0.00 0.00 0.00 58 1013.2
20260505160635 55 218 14.0 18.0 0.00 0.00 0.00 59 1013.3
20260505160132 55 240 11.0 21.0 0.00 0.00 0.00 60 1013.3
20260505153112 53 213 6.0 12.0 0.00 0.00 0.00 66 1013.2
20260505152608 53 202 11.0 12.0 0.00 0.00 0.00 65 1013.2
20260505152104 52 190 6.0 11.0 0.00 0.00 0.00 67 1013.1
20260505151559 52 224 9.0 16.0 0.00 0.00 0.00 66 1013.2
20260505151058 52 191 12.0 15.0 0.00 0.00 0.00 66 1013.3
20260505150553 52 216 10.0 16.0 0.00 0.00 0.00 67 1013.3
20260505140519 48 244 5.0 10.0 0.00 0.00 0.00 73 1012.9
20260505124932 47 217 3.0 5.0 0.00 0.00 0.00 73 1012.5
20260505124429 47 169 4.0 7.0 0.00 0.00 0.00 73 1012.2
20260505123925 46 164 3.0 5.0 0.00 0.00 0.00 74 1012.4
20260505123422 46 187 3.0 4.0 0.00 0.00 0.00 75 1012.2
20260505122918 45 268 2.0 4.0 0.00 0.00 0.00 78 1012.4
20260505122415 45 276 0.0 4.0 0.00 0.00 0.00 79 1012.2
20260505121912 45 321 1.0 3.0 0.00 0.00 0.00 79 1012.1
20260505121409 45 340 0.0 0.0 0.00 0.00 0.00 79 1012.1
20260505120905 46 11 0.0 1.0 0.00 0.00 0.00 78 1012.0
20260505120402 46 303 1.0 4.0 0.00 0.00 0.00 77 1012.0
20260505115900 46 206 4.0 7.0 0.00 0.00 0.00 77 1012.1
20260505115357 47 237 3.0 7.0 0.00 0.00 0.00 76 1012.1
20260505114855 47 209 5.0 10.0 0.00 0.00 0.00 75 1012.1
20260505114351 47 207 6.0 8.0 0.00 0.00 0.00 75 1011.9
20260505113848 47 218 5.0 10.0 0.00 0.00 0.00 75 1012.0
20260505113345 47 210 9.0 12.0 0.00 0.00 0.00 75 1011.9
20260505112840 47 257 7.0 11.0 0.00 0.00 0.00 75 1011.9
20260505112338 47 252 7.0 10.0 0.00 0.00 0.00 76 1011.8
20260505111833 46 246 7.0 10.0 0.00 0.00 0.00 76 1011.9
20260505111329 47 230 8.0 11.0 0.00 0.00 0.00 76 1011.8
20260505110825 47 235 8.0 10.0 0.00 0.00 0.00 76 1011.9
20260505110322 47 232 8.0 10.0 0.00 0.00 0.00 76 1011.8
20260505101757 47 248 3.0 7.0 0.00 0.00 0.00 74 1011.7
20260505101253 48 273 4.0 7.0 0.00 0.00 0.00 73 1011.5
20260505100749 47 235 5.0 8.0 0.00 0.00 0.00 74 1011.8
20260505100246 47 265 5.0 7.0 0.00 0.00 0.00 76 1011.5
20260505095741 47 243 7.0 10.0 0.00 0.00 0.00 76 1011.5
20260505095240 47 259 9.0 12.0 0.00 0.00 0.00 74 1011.7
20260505094735 47 249 9.0 12.0 0.00 0.00 0.00 76 1011.5
20260505094232 46 218 7.0 11.0 0.00 0.00 0.00 78 1011.4
20260505093728 46 239 11.0 12.0 0.00 0.00 0.00 79 1011.7
20260505093226 46 268 7.0 8.0 0.00 0.00 0.00 79 1011.7
20260505092722 47 222 9.0 14.0 0.00 0.00 0.00 79 1011.5
20260505092221 46 248 9.0 11.0 0.00 0.00 0.00 80 1011.8
20260505091718 46 244 9.0 11.0 0.00 0.00 0.00 82 1011.9
20260505091216 46 298 4.0 5.0 0.00 0.00 0.00 81 1012.0
20260505090713 46 267 3.0 7.0 0.00 0.00 0.00 81 1012.0
20260505090211 46 239 5.0 8.0 0.00 0.00 0.00 81 1012.0
20260505085708 47 267 8.0 11.0 0.00 0.00 0.00 79 1012.0
20260505085206 48 199 7.0 11.0 0.00 0.00 0.00 77 1012.0
20260505084703 48 221 8.0 14.0 0.00 0.00 0.00 76 1012.0
20260505084202 48 223 9.0 14.0 0.00 0.00 0.00 77 1012.2
20260505083658 48 214 11.0 16.0 0.00 0.00 0.00 77 1012.2
20260505083156 48 252 10.0 16.0 0.00 0.00 0.00 76 1012.1
20260505082651 48 226 7.0 15.0 0.00 0.00 0.00 77 1012.1
20260505082148 48 247 12.0 19.0 0.00 0.00 0.00 76 1012.0
20260505081644 48 257 11.0 15.0 0.00 0.00 0.00 76 1012.0
20260505081142 48 268 10.0 16.0 0.00 0.00 0.00 75 1011.9
20260505080638 48 248 12.0 15.0 0.00 0.00 0.00 74 1012.0
20260505080134 50 253 6.0 7.0 0.00 0.00 0.00 71 1012.1
20260505075631 51 250 8.0 14.0 0.00 0.00 0.00 67 1011.9
20260505075127 51 230 10.0 15.0 0.00 0.00 0.00 67 1012.1
20260505074624 49 220 4.0 7.0 0.00 0.00 0.00 72 1012.1
20260505074121 49 300 2.0 3.0 0.00 0.00 0.00 73 1011.9
20260505073619 50 15 1.0 3.0 0.00 0.00 0.00 70 1012.0
20260505073117 50 29 3.0 4.0 0.00 0.00 0.00 71 1011.9
20260505072612 50 24 2.0 4.0 0.00 0.00 0.00 70 1011.9
20260505072109 51 142 5.0 7.0 0.00 0.00 0.00 70 1011.9
20260505071605 51 164 4.0 7.0 0.00 0.00 0.00 70 1011.9
20260505071103 51 165 4.0 5.0 0.00 0.00 0.00 71 1011.9
20260505070600 51 160 7.0 10.0 0.00 0.00 0.00 71 1011.8
20260505070056 51 226 5.0 8.0 0.00 0.00 0.00 70 1011.7
20260505065552 51 244 5.0 8.0 0.00 0.01 0.01 70 1011.5
20260505065049 51 231 6.0 10.0 0.00 0.01 0.01 70 1011.7
20260505064546 51 234 5.0 10.0 0.00 0.01 0.01 71 1011.8
20260505064045 51 247 6.0 10.0 0.00 0.01 0.01 72 1011.3
20260505063541 52 265 6.0 10.0 0.00 0.01 0.01 71 1011.3
20260505063037 52 215 8.0 15.0 0.00 0.01 0.01 69 1011.1
20260505062533 52 216 13.0 18.0 0.00 0.01 0.01 69 1011.1
20260505062031 52 226 11.0 14.0 0.00 0.01 0.01 70 1011.1
20260505061528 52 224 9.0 12.0 0.00 0.01 0.01 69 1011.3
20260505061026 52 225 7.0 11.0 0.00 0.01 0.01 69 1011.4
20260505060523 52 248 7.0 12.0 0.00 0.01 0.01 69 1011.2
20260505060020 52 210 10.0 14.0 0.00 0.01 0.01 68 1011.3
20260505055515 52 201 7.0 12.0 0.00 0.01 0.01 68 1011.4
20260505055012 52 207 8.0 15.0 0.00 0.01 0.01 68 1011.3
20260505054509 51 193 6.0 8.0 0.00 0.01 0.01 72 1011.4
20260505054008 51 220 3.0 8.0 0.00 0.01 0.01 73 1011.7
20260505053504 51 240 6.0 8.0 0.00 0.01 0.01 75 1011.4
20260505053000 52 301 3.0 4.0 0.00 0.01 0.01 74 1011.9
20260505052458 52 322 1.0 1.0 0.00 0.01 0.01 72 1011.7
20260505051955 53 265 4.0 5.0 0.00 0.01 0.01 72 1011.8
20260505051452 53 115 3.0 5.0 0.00 0.01 0.01 68 1011.8
20260505050950 54 74 3.0 8.0 0.00 0.01 0.01 62 1011.9
20260505050448 53 158 8.0 10.0 0.00 0.01 0.01 70 1011.5
20260505041416 55 79 4.0 5.0 0.00 0.01 0.01 60 1012.2
20260505040913 55 81 3.0 5.0 0.00 0.01 0.01 63 1011.7
20260505040410 55 268 2.0 3.0 0.00 0.01 0.01 59 1011.7
20260505035907 55 187 4.0 5.0 0.00 0.01 0.01 58 1011.4
20260505035403 56 230 3.0 5.0 0.00 0.01 0.01 58 1011.4
20260505034901 56 212 5.0 7.0 0.00 0.01 0.01 57 1011.2
20260505034357 56 208 7.0 10.0 0.00 0.01 0.01 57 1011.0
20260505033854 56 220 6.0 8.0 0.00 0.01 0.01 59 1010.7
20260505033350 56 203 7.0 10.0 0.00 0.01 0.01 56 1010.7
20260505032849 56 197 9.0 11.0 0.00 0.01 0.01 56 1010.6
20260505032345 57 184 7.0 11.0 0.00 0.01 0.01 57 1010.6
20260505031842 57 182 7.0 8.0 0.07 0.01 0.01 55 1010.5
20260505031339 57 153 3.0 5.0 0.07 0.01 0.01 52 1010.6
20260505030836 57 152 6.0 11.0 0.00 0.00 0.00 56 1010.6
20260505030332 57 182 11.0 15.0 0.00 0.00 0.00 53 1010.7
20260505025827 59 186 13.0 16.0 0.00 0.00 0.00 50 1010.7
20260505025325 59 128 13.0 16.0 0.00 0.00 0.00 42 1010.7
20260505024823 59 143 6.0 7.0 0.00 0.00 0.00 46 1010.7
20260505024322 60 334 5.0 11.0 0.00 0.00 0.00 48 1010.6
20260505023818 60 228 11.0 23.0 0.00 0.00 0.00 42 1010.3
20260505023315 63 260 10.0 12.0 0.00 0.00 0.00 35 1010.4
20260505022812 63 227 5.0 12.0 0.00 0.00 0.00 34 1010.0
20260505022309 64 263 4.0 5.0 0.00 0.00 0.00 33 1009.7
20260505021807 64 198 5.0 8.0 0.00 0.00 0.00 32 1009.4
20260505021303 64 225 5.0 8.0 0.00 0.00 0.00 33 1009.8
20260505020759 64 231 7.0 10.0 0.00 0.00 0.00 36 1009.7
20260505020254 63 203 6.0 8.0 0.00 0.00 0.00 36 1009.5
20260505015752 64 208 7.0 10.0 0.00 0.00 0.00 35 1009.3
20260505015249 64 219 8.0 11.0 0.00 0.00 0.00 34 1009.1
20260505014746 64 228 4.0 8.0 0.00 0.00 0.00 34 1009.0
20260505014243 64 243 7.0 10.0 0.00 0.00 0.00 34 1009.0
20260505013739 64 252 9.0 12.0 0.00 0.00 0.00 34 1009.0
20260505013236 64 284 9.0 15.0 0.00 0.00 0.00 35 1009.0
20260505012735 65 266 9.0 12.0 0.00 0.00 0.00 32 1009.1
20260505012232 65 249 8.0 14.0 0.00 0.00 0.00 32 1009.1
20260505011727 65 251 14.0 16.0 0.00 0.00 0.00 31 1009.1
20260505011225 65 241 9.0 12.0 0.00 0.00 0.00 32 1009.4
20260505010720 65 266 11.0 15.0 0.00 0.00 0.00 33 1009.4
20260505010217 66 251 12.0 14.0 0.00 0.00 0.00 32 1009.4
20260505005713 65 247 11.0 15.0 0.00 0.00 0.00 32 1009.7
20260505005210 66 244 11.0 14.0 0.00 0.00 0.00 32 1009.8
20260505004707 65 224 9.0 15.0 0.00 0.00 0.00 33 1009.3
20260505004204 65 236 13.0 15.0 0.00 0.00 0.00 32 1009.4
20260505003702 65 248 13.0 21.0 0.00 0.00 0.00 34 1009.4
20260505003159 65 220 13.0 19.0 0.00 0.00 0.00 33 1009.2
20260505002655 66 200 17.0 22.0 0.00 0.00 0.00 34 1009.3
20260505002153 66 231 16.0 21.0 0.00 0.00 0.00 35 1009.3
20260505001649 65 208 17.0 19.0 0.00 0.00 0.00 35 1009.3
20260505001147 65 231 15.0 19.0 0.00 0.00 0.00 32 1009.4
20260505000644 66 235 20.0 22.0 0.00 0.00 0.00 32 1009.7
20260505000142 66 214 18.0 22.0 0.00 0.00 0.00 32 1009.5
20260504235638 67 221 15.0 22.0 0.00 0.00 0.00 32 1009.3
20260504235129 67 213 13.0 25.0 0.00 0.00 0.00 32 1009.4
20260504234626 66 236 15.0 26.0 0.00 0.00 0.00 33 1009.5
20260504234124 67 203 18.0 21.0 0.00 0.00 0.00 33 1009.7
20260504233620 66 223 13.0 27.0 0.00 0.00 0.00 34 1009.2
20260504233115 68 214 6.0 14.0 0.00 0.00 0.00 28 1009.3
20260504232614 69 283 5.0 14.0 0.00 0.00 0.00 27 1009.2
20260504232110 68 220 17.0 21.0 0.00 0.00 0.00 30 1008.8
20260504231607 68 182 16.0 23.0 0.00 0.00 0.00 32 1009.2
20260504231103 66 187 14.0 22.0 0.00 0.00 0.00 33 1009.3
20260504230559 65 190 17.0 25.0 0.00 0.00 0.00 35 1008.8
20260504230058 65 190 15.0 26.0 0.00 0.00 0.00 33 1009.1
20260504225555 65 197 26.0 29.0 0.00 0.00 0.00 35 1009.0
20260504225052 65 186 21.0 30.0 0.00 0.00 0.00 33 1009.2
20260504224549 66 184 29.0 38.0 0.00 0.00 0.00 34 1009.3
20260504224046 74 104 4.0 15.0 0.00 0.00 0.00 15 1008.7
20260504223543 75 197 4.0 5.0 0.00 0.00 0.00 15 1008.3
20260504223038 75 25 3.0 8.0 0.00 0.00 0.00 14 1008.3
20260504222536 75 39 9.0 12.0 0.00 0.00 0.00 14 1008.1
20260504222033 76 57 7.0 11.0 0.00 0.00 0.00 13 1008.3
20260504221530 75 86 13.0 18.0 0.00 0.00 0.00 14 1008.4
20260504221027 75 117 11.0 15.0 0.00 0.00 0.00 14 1008.5
20260504220524 75 99 16.0 19.0 0.00 0.00 0.00 13 1008.6
20260504220021 74 115 3.0 8.0 0.00 0.00 0.00 14 1008.4
20260504215517 75 28 7.0 12.0 0.00 0.00 0.00 15 1008.5
20260504215015 74 334 10.0 12.0 0.00 0.00 0.00 15 1008.7
20260504214510 74 37 9.0 14.0 0.00 0.00 0.00 16 1008.7
20260504214007 76 54 13.0 22.0 0.00 0.00 0.00 15 1008.7
20260504213503 73 183 6.0 15.0 0.00 0.00 0.00 16 1008.7
20260504213001 73 160 11.0 14.0 0.00 0.00 0.00 16 1009.0
20260504212456 73 104 7.0 8.0 0.00 0.00 0.00 17 1009.1
20260504211954 72 63 11.0 12.0 0.00 0.00 0.00 17 1009.1
20260504211450 72 326 3.0 8.0 0.00 0.00 0.00 16 1009.4
20260504210948 73 59 5.0 11.0 0.00 0.00 0.00 16 1009.1
20260504210444 74 49 11.0 16.0 0.00 0.00 0.00 15 1009.4
20260504205941 73 359 4.0 5.0 0.00 0.00 0.00 18 1009.5
20260504205439 74 53 8.0 14.0 0.00 0.00 0.00 17 1009.7
20260504204937 74 117 17.0 29.0 0.00 0.00 0.00 18 1009.5
20260504204435 73 217 5.0 7.0 0.00 0.00 0.00 17 1009.7
20260504203934 73 335 7.0 11.0 0.00 0.00 0.00 17 1009.8
20260504203431 73 331 4.0 10.0 0.00 0.00 0.00 17 1010.0
20260504202927 73 353 7.0 10.0 0.00 0.00 0.00 19 1009.8
20260504202424 73 86 8.0 12.0 0.00 0.00 0.00 19 1010.0
20260504201921 72 327 3.0 8.0 0.00 0.00 0.00 19 1010.4
20260504201418 71 44 6.0 8.0 0.00 0.00 0.00 19 1010.1
20260504200915 71 178 5.0 10.0 0.00 0.00 0.00 20 1010.4
20260504200412 71 74 8.0 10.0 0.00 0.00 0.00 20 1010.7
20260504195909 70 139 3.0 8.0 0.00 0.00 0.00 21 1010.5
20260504195404 71 165 5.0 11.0 0.00 0.00 0.00 21 1010.6
20260504194901 71 141 7.0 10.0 0.00 0.00 0.00 22 1010.6
20260504194357 71 213 10.0 12.0 0.00 0.00 0.00 21 1010.6
20260504193853 71 243 8.0 10.0 0.00 0.00 0.00 22 1010.7
20260504193350 69 191 5.0 8.0 0.00 0.00 0.00 22 1011.1
20260504192849 70 211 7.0 8.0 0.00 0.00 0.00 22 1011.0
20260504192347 70 179 10.0 12.0 0.00 0.00 0.00 22 1011.2
20260504191845 70 176 9.0 10.0 0.00 0.00 0.00 22 1011.4
20260504191343 69 196 6.0 8.0 0.00 0.00 0.00 22 1011.3
20260504190838 70 180 7.0 10.0 0.00 0.00 0.00 22 1011.2
20260504190334 68 128 5.0 10.0 0.00 0.00 0.00 24 1011.3
20260504185831 68 153 8.0 10.0 0.00 0.00 0.00 24 1011.4
20260504185328 69 172 9.0 11.0 0.00 0.00 0.00 24 1011.3
20260504184824 68 319 2.0 4.0 0.00 0.00 0.00 24 1011.7
20260504184320 68 197 4.0 7.0 0.00 0.00 0.00 25 1011.9
20260504183815 69 181 11.0 15.0 0.00 0.00 0.00 25 1011.9
20260504183313 69 249 2.0 11.0 0.00 0.00 0.00 26 1011.8
20260504182811 68 238 4.0 7.0 0.00 0.00 0.00 25 1012.1
20260504182308 67 263 4.0 5.0 0.00 0.00 0.00 27 1012.1
20260504181805 68 244 8.0 12.0 0.00 0.00 0.00 27 1012.1
20260504181302 68 106 4.0 7.0 0.00 0.00 0.00 27 1012.1
20260504180801 66 253 11.0 12.0 0.00 0.00 0.00 27 1012.4
20260504180259 67 210 8.0 11.0 0.00 0.00 0.00 28 1012.5
20260504175757 66 164 8.0 12.0 0.00 0.00 0.00 29 1012.2
20260504175253 66 59 5.0 14.0 0.00 0.00 0.00 28 1012.5
20260504174751 66 221 7.0 16.0 0.00 0.00 0.00 28 1012.5
20260504174249 65 178 12.0 12.0 0.00 0.00 0.00 28 1012.4
20260504173745 65 161 11.0 15.0 0.00 0.00 0.00 28 1012.6